This demonstration page uses our WeatherBlox Daily Observations layout. Learn more.

Left ArrowRight Arrow

Hourly Observations for June 13, 2015

Temp ( °F °C ) Dew Point ( °F °C ) Humidity (%) Winds ( mph kmh ) Pressure ( in mb ) Visibility ( mi km ) Precip ( " mm )
12:59 am 00:59 Mostly Clear 84 28.9 74 23.3 72 72 SSW 7 11 29.98 1015 10 16 0.00 0.00
1:59 am 01:59 Mostly Clear 84 28.9 74 23.3 72 72 SSW 8 13 29.96 1015 10 16 0.00 0.00
2:59 am 02:59 Mostly Clear 83 28.3 74 23.3 74 74 SW 7 11 29.96 1014 10 16 0.00 0.00
3:59 am 03:59 Mostly Clear 83 28.3 74 23.3 74 74 WSW 6 9 29.96 1014 10 16 0.00 0.00
4:59 am 04:59 Mostly Clear 82 27.8 74 23.3 77 77 WSW 8 13 29.96 1015 10 16 0.00 0.00
5:59 am 05:59 Mostly Sunny 81 27.2 73 22.8 77 77 SW 7 11 29.97 1015 8 13 0.00 0.00
6:59 am 06:59 Mostly Sunny 82 27.8 73 22.8 74 74 SW 6 9 29.98 1015 8 13 0.00 0.00
7:59 am 07:59 Partly Cloudy 83 28.3 73 22.8 72 72 W 10 17 29.99 1016 9 14 0.00 0.00
8:59 am 08:59 Mostly Sunny 85 29.4 74 23.3 70 70 W 8 13 30.01 1016 9 14 0.00 0.00
9:59 am 09:59 Partly Cloudy 88 31.1 75 23.9 66 66 W 6 9 30.01 1016 8 13 0.00 0.00
10:59 am 10:59 Partly Cloudy 90 32.2 74 23.3 59 59 WNW 9 15 30.02 1017 9 14 0.00 0.00
11:59 am 11:59 Partly Cloudy 92 33.3 75 23.9 58 58 Calm 30.03 1017 8 13 0.00 0.00
12:59 pm 12:59 Partly Cloudy 97 36.1 75 23.9 49 49 N 6 9 30.02 1017 8 13 0.00 0.00
1:59 pm 13:59 Partly Cloudy 97 36.1 72 22.2 45 45 VRB 5 7 30.01 1016 10 16 0.00 0.00
2:51 pm 14:51 Mostly Cloudy with Thunderstorms 96 35.6 72 22.2 46 46 N 10 17 30.00 1016 10 16 0.00 0.00
2:59 pm 14:59 Mostly Cloudy with Thunderstorms 96 35.6 74 23.3 49 49 NNE 16 26 30.00 1016 9 14 0.00 0.00
3:54 pm 15:54 Mostly Cloudy 90 32 72 22 55 55 NE 13 20 30.00 1016 9 14 0.00 0.00
3:59 pm 15:59 Mostly Cloudy 90 32.2 72 22.2 56 56 ENE 8 13 29.98 1015 9 14 0.00 0.00
4:59 pm 16:59 Mostly Cloudy 95 35 70 21.1 44 44 NNE 6 9 29.97 1015 10 16 0.00 0.00
5:59 pm 17:59 Mostly Cloudy 91 32.8 67 19.4 45 45 E 7 11 29.99 1016 10 16 0.00 0.00
6:24 pm 18:24 Mostly Cloudy with Thunderstorms 91 32.8 69 20.6 49 49 N 6 9 30.00 1016 9 14 0.00 0.03
6:59 pm 18:59 Mostly Cloudy 89 31.7 72 22.2 57 57 SW 5 7 30.00 1016 10 16 0.00 0.00
7:59 pm 19:59 Mostly Cloudy 88 31.1 74 23.3 63 63 S 3 6 30.00 1016 9 14 0.00 0.00
8:59 pm 20:59 Mostly Cloudy 88 31.1 74 23.3 63 63 Calm 30.01 1016 10 16 0.00 0.00
9:59 pm 21:59 Partly Cloudy 87 30.6 75 23.9 67 67 Calm 30.02 1017 10 16 0.00 0.00
10:59 pm 22:59 Partly Cloudy 84 28.9 78 25.6 82 82 W 5 7 30.03 1017 10 16 0.00 0.00
11:59 pm 23:59 Partly Cloudy 83 28.3 76 24.4 79 79 WNW 3 6 30.03 1017 10 16 0.00 0.00

Powered by AerisWeather